Tracking 28790 objects as of 19-Apr-2024
HD Live streaming from Space Station
objects crossing your sky now

OBJECT G

Track OBJECT G now!
10-day predictions


NORAD ID: 55254
Int'l Code: 2023-007G
Perigee: 436.0 km
Apogee: 443.6 km
Inclination: 97.3 °
Period: 93.2 minutes
Semi major axis: 6810 km
RCS: Unknown
Launch date: January 15, 2023
Source: People's Republic of China (PRC)
Launch site: Taiyaun Space Center, China (TSC)
Your satellite tracking list
Your tracking list is empty




NASA's NSSDC Master Catalog

Two Line Element Set (TLE):
1 55254U 23007G   24110.18133140  .00069791  00000-0  14925-2 0  9997
2 55254  97.3203 185.6738 0005581  82.5904 277.5979 15.44557585 70396
Source of the keplerian elements: AFSPC